#timestamp,LO_Frequency,Hit 
1500706815.7,286045694.5,N
1500706835.6,286045694.5,N
1500706855.4,286045696.6,N
1500706875.2,286045696.6,N
1500706895.1,286045696.2,N
1500706896.0,286045696.2,N
1500706915.8,286045696.8,N
1500706935.7,286045697.2,N
1500706955.5,286045697.2,N
1500706975.3,286045696.8,N
1500706995.2,286045697.2,N
1500707015.0,286045695.6,N
1500707015.9,286045695.6,N
1500707035.8,286045692.5,N
1500707055.6,286045695.4,N
1500707075.4,286045697.2,N
1500707095.3,286045696.7,N
1500707115.1,286045694.1,N
1500707135.9,286045695.4,N
1500707155.7,286045695.4,N
1500707175.5,286045695.4,N
1500707195.8,286045692.5,N
1500707215.6,286045694.4,N
1500707235.4,286045694.6,N
1500707255.3,286045694.1,N
1500707275.1,286045696.8,N
1500707295.9,286045697.1,N
1500707315.7,286045694.1,N
1500707335.5,286045694.7,N
1500707355.4,286045694.1,N
1500707375.2,286045694.2,N
1500707395.1,286045694.9,N
1500707396.0,286045694.9,N
1500707415.8,286045694.8,N
1500707435.6,286045694.6,N
1500707455.5,286045694.3,N
1500707475.3,286045695.5,N
1500707495.1,286045694.1,N
1500707515.9,286045695.4,N
1500707535.7,286045695.1,N
1500707555.6,286045694.8,N
1500707575.4,286045694.9,N
1500707595.2,286045694.4,N
1500707615.1,286045694.4,N
1500707616.0,286045694.4,N
1500707635.8,286045695.3,N
1500707655.7,286045694.7,N
1500707675.5,286045695.1,N
1500707695.3,286045695.2,N
1500707715.2,286045695.2,N
1500707735.0,286045694.8,N
1500707735.9,286045694.8,N
1500707755.7,286045694.5,N
1500707775.6,286045695.2,N
1500707795.4,286045692.5,N
1500707815.3,286045693.8,N
1500707835.1,286045693.3,N
1500707855.8,286045693.5,N
1500707875.7,286045691.0,N
1500707895.5,286045691.1,N
1500707915.4,286045691.4,N
1500707935.2,286045691.8,N
1500707955.0,286045692.0,N
1500707955.9,286045692.0,N
1500707975.8,286045689.3,N
1500707995.6,286045690.3,N
1500708015.5,286045689.6,N
1500708035.3,286045690.2,N
1500708055.1,286045690.2,N
1500708075.9,286045689.3,N
1500708095.7,286045689.9,N
1500708115.5,286045690.0,N
1500708135.4,286045689.4,N
1500708155.2,286045687.7,N
1500708175.1,286045688.6,N
1500708176.0,286045688.6,N
1500708195.8,286045688.8,N
1500708215.6,286045688.9,N
1500708235.5,286045688.8,N
1500708255.3,286045686.7,N
1500708275.2,286045688.8,N
1500708295.9,286045688.4,N
1500708315.7,286045686.7,N
1500708335.6,286045687.1,N
1500708355.4,286045686.4,N
1500708375.2,286045686.4,N
1500708395.1,286045686.9,N
1500708396.0,286045686.9,N
1500708415.8,286045686.8,N
1500708435.7,286045686.7,N
1500708455.5,286045684.5,N
1500708475.3,286045684.5,N
1500708495.2,286045684.9,N
1500708515.0,286045684.9,N
1500708515.9,286045684.9,N
1500708535.8,286045686.9,N
1500708555.6,286045687.1,N
1500708575.4,286045685.0,N
1500708595.3,286045685.1,N
1500708615.1,286045685.7,N
1500708635.8,286045687.3,N
1500708655.7,286045686.6,N
1500708675.5,286045684.6,N
1500708695.4,286045684.8,N
1500708715.2,286045683.3,N
1500708735.0,286045685.6,N
1500708735.9,286045685.6,N
1500708755.8,286045685.8,N
1500708775.6,286045685.0,N
1500708795.5,286045684.6,N
1500708815.3,286045686.4,N
1500708835.1,286045687.4,N
1500708855.9,286045687.5,N
1500708875.7,286045687.5,N
1500708895.5,286045687.6,N
1500708915.4,286045686.9,N
1500708935.2,286045685.1,N
1500708955.1,286045683.1,N
1500708956.0,286045683.1,N
1500708975.8,286045685.9,N
1500708995.6,286045685.8,N
1500709015.5,286045683.7,N
1500709035.3,286045684.2,N
1500709055.2,286045682.0,N
1500709075.9,286045683.5,N
1500709095.7,286045683.2,N
1500709115.6,286045683.0,N
1500709135.4,286045685.9,N
1500709155.2,286045685.7,N
1500709175.1,286045685.9,N
1500709176.0,286045685.9,N
1500709195.8,286045685.5,N
1500709215.7,286045683.9,N
1500709235.5,286045682.0,N
1500709255.3,286045682.5,N
1500709275.2,286045682.6,N
1500709295.0,286045681.0,N
1500709295.9,286045681.0,N
1500709315.8,286045680.2,N
1500709335.6,286045680.5,N
1500709355.4,286045680.7,N
1500709375.3,286045680.8,N
1500709395.1,286045680.3,N
1500709415.8,286045679.9,N
1500709435.7,286045680.5,N
1500709455.5,286045678.1,N
1500709475.4,286045681.0,N
1500709495.2,286045680.6,N
1500709515.0,286045681.0,N
1500709515.9,286045681.0,N
1500709535.8,286045681.0,N
1500709555.6,286045680.4,N
1500709575.5,286045680.3,N
1500709595.3,286045682.7,N
1500709615.1,286045682.2,N
1500709635.9,286045681.7,N
1500709655.7,286045684.3,N
1500709675.5,286045681.4,N
1500709695.4,286045681.5,N
1500709715.2,286045681.8,N
1500709735.1,286045681.4,N
1500709736.0,286045681.4,N
1500709755.8,286045684.0,N
1500709775.6,286045681.6,N
1500709795.5,286045681.4,N
1500709815.3,286045681.9,N
1500709835.2,286045681.9,N
1500709855.9,286045681.3,N
1500709875.7,286045681.6,N
1500709895.6,286045681.5,N
1500709915.4,286045681.3,N
1500709935.2,286045683.7,N
1500709955.1,286045683.4,N
1500709956.0,286045683.4,N
1500709975.8,286045684.2,N
1500709995.7,286045681.4,N
1500710015.5,286045684.2,N
1500710035.3,286045683.9,N
1500710055.2,286045684.3,N
1500710075.0,286045681.3,N
1500710075.9,286045681.3,N
1500710095.8,286045685.6,N
1500710115.6,286045683.4,N
1500710135.4,286045683.6,N
1500710155.3,286045683.6,N
1500710175.1,286045681.3,N
1500710195.9,286045683.8,N
1500710215.7,286045683.5,N
1500710235.5,286045685.4,N
1500710255.4,286045685.8,N
1500710275.2,286045683.6,N
1500710295.0,286045683.3,N
1500710295.9,286045683.3,N
1500710315.8,286045685.3,N
1500710335.6,286045685.6,N
1500710355.5,286045685.1,N
1500710375.3,286045684.6,N
1500710395.1,286045685.5,N
